Regional Weather Roundup
Issued by NWS

Home | Current Version | Previous Version | Graphics & Text | Print | Product List | Glossary On
Versions: 1 2 3 4 5 6 7 8 9 10 11 12 13 14 15 16 17 18 19 20 21 22 23 24 25 26 27 28 29 30 31 32 33 34 35 36 37 38 39 40 41 42 43 44 45 46 47 48 49 50
000
ASUS45 KABQ 300101
RWRNM
NEW MEXICO REGIONAL WEATHER ROUNDUP
NATIONAL WEATHER SERVICE ALBUQUERQUE NM
700 PM MDT FRI JUL 29 2016

NOTE: "FAIR" MEANS FEW OR NO CLOUDS BELOW 12,000 FEET AGL WITH NO
       SIGNIFICANT WEATHER OR OBSTRUCTIONS TO VISION.

      THIS PRODUCT IS RELEASED AS TWO VERSIONS.  ONE VERSION NEAR
      THE TOP OF THE HOUR CONTAINING PRELIMINARY DATA FROM ALBUQUERQUE
      AND OTHER STATIONS.  A FINAL VERSION WITH ADDITIONAL DATA IS
      ISSUED ABOUT 10 MINUTES AFTER THE HOUR.

NMZ501-503-504-510>518-300200-
NORTHWEST PLATEAU/NORTHCENTRAL MOUNTAINS

CITY           SKY/WX    TMP DP  RH WIND       PRES   REMARKS
FARMINGTON     FAIR      95  26   8 SE5       29.99F
LOS ALAMOS     FAIR      72  38  30 SW16      30.24F
SANTA FE       PTSUNNY   70  47  43 S15       30.16F
TAOS           FAIR      75  37  25 SW9       30.23R
ANGEL FIRE     FAIR      68  43  40 S12       30.34R

$$
NMZ402-403-502-505>509-300200-
WESTCENTRAL MOUNTAINS/SOUTHWEST MOUNTAINS

CITY           SKY/WX    TMP DP  RH WIND       PRES   REMARKS
GALLUP         FAIR      80  46  30 S23G36    30.15R
GRANTS         FAIR      77  48  35 SW17G25   30.20S
SILVER CITY    FAIR      76  47  34 N17       30.12S

$$
NMZ407-409-411-412-300200-
SOUTHERN DESERTS

CITY           SKY/WX    TMP DP  RH WIND       PRES   REMARKS
LORDSBURG      FAIR      82  46  28 N21G30    30.00F
DEMING         FAIR      93  44  18 CALM      29.99F
LAS CRUCES     FAIR      92  42  17 SE7       30.02R
HOLLOMAN AFB   PTSUNNY   94  46  19 S18       29.97R
ALAMOGORDO     FAIR      86  48  26 NE12      30.01R
T OR C         FAIR      82  48  30 NW21G29   30.06S

$$
NMZ519>523-300200-
CENTRAL VALLEYS/CENTRAL HIGHLANDS

CITY           SKY/WX    TMP DP  RH WIND       PRES   REMARKS
ALBUQUERQUE    TSTM      70  61  73 E14       30.20F
DOUBLE EAGLE   PTSUNNY   68  57  68 SE14      30.23F
MORIARTY ARPT  FAIR      69  50  50 W8        30.26F
CLINES CORNERS FAIR      68  45  43 NE8       30.32F
BELEN          PTSUNNY   79  44  29 NE10      30.16R
SOCORRO        FAIR      88  40  18 N6        30.08R

$$
NMZ524>526-539-540-300200-
SOUTHCENTRAL MOUNTAINS

CITY           SKY/WX    TMP DP  RH WIND       PRES   REMARKS
RUIDOSO        NOT AVBL

$$
NMZ527>531-300200-
NORTHEAST HIGHLANDS/NORTHEAST PLAINS

CITY           SKY/WX    TMP DP  RH WIND       PRES   REMARKS
LAS VEGAS      FAIR      62  52  69 S16       30.25R
RATON          CLOUDY    68  56  65 SW18      30.16F
CLAYTON        LGT RAIN  63  58  83 S10G24    30.12F

$$
NMZ532>537-300200-
EASTCENTRAL PLAINS

CITY           SKY/WX    TMP DP  RH WIND       PRES   REMARKS
TUCUMCARI      PTSUNNY   86  47  25 NW29      30.02R
CANNON AFB     FAIR      88  54  30 S12       30.06R
CLOVIS AIRPORT FAIR      88  55  33 S17       30.06R

$$
NMZ028-029-538-300200-
SOUTHEAST PLAINS

CITY           SKY/WX    TMP DP  RH WIND       PRES   REMARKS
ROSWELL        FAIR      92  51  24 S10       29.98R
ARTESIA        FAIR      91  54  27 SE16      29.99R
CARLSBAD       FAIR      92  56  29 SE17G24   29.96R
HOBBS          FAIR      90  54  29 SE15      30.02R


$$



USA.gov is the U.S. government's official web portal to all federal, state and local government web resources and services.